Terug naar catalogus

OPS 9341

IDSCS 19

LostMilitairMEO
NORAD 3284·PAYLOAD·🇺🇸 United States

Gelanceerd Jun 13, 1968 vanaf Cape Canaveral Space Force Station

Loading…

Volgende Passages (komende 24 uur)

TLE

VerouderdSource: Space-Track

Epoch: Aug 1, 2026, 05:14 UTC

1  3284U 68050A   26213.21808022 -.00000113  00000-0  00000+0 0  9998
2  3284   7.3005  51.2431 0014030 153.7413  79.2269  1.07854941 50696

Volg OPS 9341 in realtime met AllMySat

Download on the App Store